Time,TemperatureF,DewpointF,PressureIn,WindDirection,WindDirectionDegrees,WindSpeedMPH,WindSpeedGustMPH,Humidity,HourlyPrecipIn,Conditions,Clouds,dailyrainin,SoftwareType,DateUTC
2013-02-14 00:02:00,19.0,-99.9,-100.00,SW,235,35.0,50.0,-999,-99.99,,,-99.99,,2013-02-14 07:02:00,
2013-02-14 00:11:00,19.0,-99.9,-100.00,SW,235,35.0,50.0,-999,-99.99,,,-99.99,,2013-02-14 07:11:00,
2013-02-14 00:22:00,19.0,-99.9,-100.00,SW,234,36.0,49.0,-999,-99.99,,,-99.99,,2013-02-14 07:22:00,
2013-02-14 00:32:00,19.0,-99.9,-100.00,SW,232,37.0,52.0,-999,-99.99,,,-99.99,,2013-02-14 07:32:00,
2013-02-14 00:40:00,19.0,-99.9,-100.00,WSW,237,40.0,43.0,-999,-99.99,,,-99.99,,2013-02-14 07:40:00,
2013-02-14 00:42:00,19.0,-99.9,-100.00,SW,232,37.0,52.0,-999,-99.99,,,-99.99,,2013-02-14 07:42:00,
2013-02-14 00:52:00,19.0,-99.9,-100.00,SW,235,27.0,48.0,-999,-99.99,,,-99.99,,2013-02-14 07:52:00,
2013-02-14 01:01:00,19.0,-99.9,-100.00,SW,226,42.0,48.0,-999,-99.99,,,-99.99,,2013-02-14 08:01:00,
2013-02-14 01:11:00,19.0,-99.9,-100.00,SW,226,42.0,48.0,-999,-99.99,,,-99.99,,2013-02-14 08:11:00,
2013-02-14 01:20:00,19.0,-99.9,-100.00,SW,231,37.0,42.0,-999,-99.99,,,-99.99,,2013-02-14 08:20:00,
2013-02-14 01:22:00,19.0,-99.9,-100.00,WSW,237,40.0,43.0,-999,-99.99,,,-99.99,,2013-02-14 08:22:00,
2013-02-14 01:32:00,19.0,-99.9,-100.00,WSW,237,40.0,43.0,-999,-99.99,,,-99.99,,2013-02-14 08:32:00,
2013-02-14 01:52:00,19.0,-99.9,-100.00,SW,235,37.0,45.0,-999,-99.99,,,-99.99,,2013-02-14 08:52:00,
2013-02-14 02:02:00,19.0,-99.9,-100.00,SW,231,37.0,42.0,-999,-99.99,,,-99.99,,2013-02-14 09:02:00,
2013-02-14 02:11:00,19.0,-99.9,-100.00,SW,231,37.0,42.0,-999,-99.99,,,-99.99,,2013-02-14 09:11:00,
2013-02-14 02:52:00,19.0,-99.9,-100.00,SW,229,26.0,39.0,-999,-99.99,,,-99.99,,2013-02-14 09:52:00,
2013-02-14 03:00:00,19.0,-99.9,-100.00,WSW,239,34.0,49.0,-999,-99.99,,,-99.99,,2013-02-14 10:00:00,
2013-02-14 03:02:00,19.0,-99.9,-100.00,WSW,241,36.0,51.0,-999,-99.99,,,-99.99,,2013-02-14 10:02:00,
2013-02-14 03:11:00,19.0,-99.9,-100.00,WSW,241,36.0,51.0,-999,-99.99,,,-99.99,,2013-02-14 10:11:00,
2013-02-14 03:22:00,19.0,-99.9,-100.00,WSW,238,41.0,44.0,-999,-99.99,,,-99.99,,2013-02-14 10:22:00,
2013-02-14 03:32:00,19.0,-99.9,-100.00,WSW,238,41.0,44.0,-999,-99.99,,,-99.99,,2013-02-14 10:32:00,
2013-02-14 03:52:00,19.0,-99.9,-100.00,WSW,239,34.0,49.0,-999,-99.99,,,-99.99,,2013-02-14 10:52:00,
2013-02-14 04:00:00,18.0,-99.9,-100.00,SW,229,35.0,42.0,-999,-99.99,,,-99.99,,2013-02-14 11:00:00,
2013-02-14 04:52:00,18.0,-99.9,-100.00,SW,229,35.0,42.0,-999,-99.99,,,-99.99,,2013-02-14 11:52:00,
2013-02-14 05:00:00,18.0,-99.9,-100.00,WSW,239,34.0,41.0,-999,-99.99,,,-99.99,,2013-02-14 12:00:00,
2013-02-14 05:53:00,18.0,-99.9,-100.00,WSW,239,34.0,41.0,-999,-99.99,,,-99.99,,2013-02-14 12:53:00,
2013-02-14 06:00:00,18.0,-99.9,-100.00,WSW,242,30.0,40.0,-999,-99.99,,,-99.99,,2013-02-14 13:00:00,
2013-02-14 06:52:00,18.0,-99.9,-100.00,WSW,242,30.0,40.0,-999,-99.99,,,-99.99,,2013-02-14 13:52:00,
2013-02-14 07:00:00,18.0,-99.9,-100.00,SW,229,30.0,35.0,-999,-99.99,,,-99.99,,2013-02-14 14:00:00,
2013-02-14 07:53:00,18.0,-99.9,-100.00,SW,229,30.0,35.0,-999,-99.99,,,-99.99,,2013-02-14 14:53:00,
2013-02-14 08:00:00,23.0,-99.9,-100.00,West,274,28.0,37.0,-999,-99.99,,,-99.99,,2013-02-14 15:00:00,
2013-02-14 08:52:00,23.0,-99.9,-100.00,West,274,28.0,37.0,-999,-99.99,,,-99.99,,2013-02-14 15:52:00,
2013-02-14 09:00:00,23.0,-99.9,-100.00,WNW,294,14.0,25.0,-999,-99.99,,,-99.99,,2013-02-14 16:00:00,
2013-02-14 09:52:00,23.0,-99.9,-100.00,WNW,294,14.0,25.0,-999,-99.99,,,-99.99,,2013-02-14 16:52:00,
2013-02-14 10:00:00,19.0,-99.9,-100.00,North,353,14.0,18.0,-999,-99.99,,,-99.99,,2013-02-14 17:00:00,
2013-02-14 10:52:00,19.0,-99.9,-100.00,North,353,14.0,18.0,-999,-99.99,,,-99.99,,2013-02-14 17:52:00,
2013-02-14 11:00:00,18.0,-99.9,-100.00,NW,319,12.0,19.0,-999,-99.99,,,-99.99,,2013-02-14 18:00:00,
2013-02-14 11:52:00,18.0,-99.9,-100.00,NW,319,12.0,19.0,-999,-99.99,,,-99.99,,2013-02-14 18:52:00,
2013-02-14 12:00:00,18.0,-99.9,-100.00,WNW,294,15.0,19.0,-999,-99.99,,,-99.99,,2013-02-14 19:00:00,
2013-02-14 12:52:00,18.0,-99.9,-100.00,WNW,294,15.0,19.0,-999,-99.99,,,-99.99,,2013-02-14 19:52:00,
2013-02-14 13:00:00,18.0,-99.9,-100.00,WNW,298,18.0,23.0,-999,-99.99,,,-99.99,,2013-02-14 20:00:00,
2013-02-14 13:52:00,18.0,-99.9,-100.00,WNW,298,18.0,23.0,-999,-99.99,,,-99.99,,2013-02-14 20:52:00,
2013-02-14 14:00:00,18.0,-99.9,-100.00,WNW,293,10.0,16.0,-999,-99.99,,,-99.99,,2013-02-14 21:00:00,
2013-02-14 14:52:00,18.0,-99.9,-100.00,WNW,293,10.0,16.0,-999,-99.99,,,-99.99,,2013-02-14 21:52:00,
2013-02-14 15:00:00,18.0,-99.9,-100.00,West,274,12.0,25.0,-999,-99.99,,,-99.99,,2013-02-14 22:00:00,
2013-02-14 15:52:00,18.0,-99.9,-100.00,West,274,12.0,25.0,-999,-99.99,,,-99.99,,2013-02-14 22:52:00,
2013-02-14 16:00:00,12.0,-99.9,-100.00,WNW,288,13.0,22.0,-999,-99.99,,,-99.99,,2013-02-14 23:00:00,
2013-02-14 16:52:00,12.0,-99.9,-100.00,WNW,288,13.0,22.0,-999,-99.99,,,-99.99,,2013-02-14 23:52:00,
2013-02-14 17:00:00,12.0,-99.9,-100.00,West,264,12.0,14.0,-999,-99.99,,,-99.99,,2013-02-15 00:00:00,
2013-02-14 17:52:00,12.0,-99.9,-100.00,West,264,12.0,14.0,-999,-99.99,,,-99.99,,2013-02-15 00:52:00,
2013-02-14 18:00:00,10.0,-99.9,-100.00,SW,216,4.0,8.0,-999,-99.99,,,-99.99,,2013-02-15 01:00:00,
2013-02-14 18:52:00,10.0,-99.9,-100.00,SW,216,4.0,8.0,-999,-99.99,,,-99.99,,2013-02-15 01:52:00,
2013-02-14 19:00:00,10.0,-99.9,-100.00,WSW,237,6.0,7.0,-999,-99.99,,,-99.99,,2013-02-15 02:00:00,
2013-02-14 19:52:00,10.0,-99.9,-100.00,WSW,237,6.0,7.0,-999,-99.99,,,-99.99,,2013-02-15 02:52:00,
2013-02-14 20:00:00,9.0,-99.9,-100.00,SW,232,7.0,8.0,-999,-99.99,,,-99.99,,2013-02-15 03:00:00,
2013-02-14 20:32:00,9.0,-99.9,-100.00,SW,232,7.0,8.0,-999,-99.99,,,-99.99,,2013-02-15 03:32:00,
2013-02-14 20:42:00,9.0,-99.9,-100.00,SW,232,7.0,8.0,-999,-99.99,,,-99.99,,2013-02-15 03:42:00,
2013-02-14 20:52:00,9.0,-99.9,-100.00,SW,232,7.0,8.0,-999,-99.99,,,-99.99,,2013-02-15 03:52:00,
2013-02-14 21:00:00,10.0,-99.9,-100.00,West,271,5.0,5.0,-999,-99.99,,,-99.99,,2013-02-15 04:00:00,
2013-02-14 21:52:00,10.0,-99.9,-100.00,West,271,5.0,5.0,-999,-99.99,,,-99.99,,2013-02-15 04:52:00,
2013-02-14 22:00:00,10.0,-99.9,-100.00,SW,229,4.0,6.0,-999,-99.99,,,-99.99,,2013-02-15 05:00:00,
2013-02-14 22:52:00,10.0,-99.9,-100.00,SW,229,4.0,6.0,-999,-99.99,,,-99.99,,2013-02-15 05:52:00,
2013-02-14 23:00:00,7.0,-99.9,-100.00,West,281,5.0,6.0,-999,-99.99,,,-99.99,,2013-02-15 06:00:00,
2013-02-14 23:52:00,7.0,-99.9,-100.00,West,281,5.0,6.0,-999,-99.99,,,-99.99,,2013-02-15 06:52:00,